Time,TemperatureF,DewpointF,PressureIn,WindDirection,WindDirectionDegrees,WindSpeedMPH,WindSpeedGustMPH,Humidity,HourlyPrecipIn,Conditions,Clouds,dailyrainin,SolarRadiationWatts/m^2,SoftwareType,DateUTC
2013-03-11 00:00:00,53.2,49.5,30.14,ENE,68,0.0,0.0,87,0.00,,,0.00,0.0,meteohub,2013-03-11 04:00:00,
2013-03-11 00:05:00,53.1,49.3,30.14,ENE,68,0.0,0.0,87,0.00,,,0.00,0.0,meteohub,2013-03-11 04:05:00,
2013-03-11 00:10:00,53.1,49.3,30.14,ENE,68,0.0,0.0,87,0.00,,,0.00,0.0,meteohub,2013-03-11 04:10:00,
2013-03-11 00:15:00,52.9,49.1,30.14,ENE,68,0.0,0.0,87,0.00,,,0.00,0.0,meteohub,2013-03-11 04:15:00,
2013-03-11 00:20:00,52.7,48.9,30.14,ENE,68,0.0,0.0,87,0.00,,,0.00,0.0,meteohub,2013-03-11 04:20:00,
2013-03-11 00:25:00,52.5,48.7,30.14,ENE,68,0.0,0.0,87,0.00,,,0.00,0.0,meteohub,2013-03-11 04:25:00,
2013-03-11 00:30:00,52.5,48.7,30.14,ENE,68,0.0,0.0,87,0.00,,,0.00,0.0,meteohub,2013-03-11 04:30:00,
2013-03-11 00:35:00,52.3,48.9,30.14,ENE,68,0.0,0.0,88,0.00,,,0.00,0.0,meteohub,2013-03-11 04:35:00,
2013-03-11 00:40:00,52.3,48.9,30.13,ENE,68,0.0,0.0,88,0.00,,,0.00,0.0,meteohub,2013-03-11 04:40:00,
2013-03-11 00:45:00,52.3,48.9,30.13,ENE,68,0.0,0.0,88,0.00,,,0.00,0.0,meteohub,2013-03-11 04:45:00,
2013-03-11 00:50:00,52.2,48.7,30.13,ENE,68,0.0,0.0,88,0.00,,,0.00,0.0,meteohub,2013-03-11 04:50:00,
2013-03-11 00:55:00,52.0,48.6,30.13,ENE,68,0.0,0.0,88,0.00,,,0.00,0.0,meteohub,2013-03-11 04:55:00,
2013-03-11 01:00:00,52.0,48.6,30.13,ENE,68,0.0,0.0,88,0.00,,,0.00,0.0,meteohub,2013-03-11 05:00:00,
2013-03-11 01:05:00,52.0,48.6,30.12,ENE,68,0.0,0.0,88,0.00,,,0.00,0.0,meteohub,2013-03-11 05:05:00,
2013-03-11 01:10:00,52.0,48.6,30.12,ENE,68,0.0,0.0,88,0.00,,,0.00,0.0,meteohub,2013-03-11 05:10:00,
2013-03-11 01:15:00,51.8,48.4,30.13,ENE,68,0.0,0.0,88,0.00,,,0.00,0.0,meteohub,2013-03-11 05:15:00,
2013-03-11 01:20:00,51.8,48.7,30.12,ENE,68,0.0,0.0,89,0.00,,,0.00,0.0,meteohub,2013-03-11 05:20:00,
2013-03-11 01:25:00,51.8,48.7,30.12,ENE,68,0.0,0.0,89,0.00,,,0.00,0.0,meteohub,2013-03-11 05:25:00,
2013-03-11 01:30:00,51.8,48.7,30.12,ENE,68,0.0,0.0,89,0.00,,,0.00,0.0,meteohub,2013-03-11 05:30:00,
2013-03-11 01:35:00,51.6,48.6,30.12,ENE,68,0.0,0.0,89,0.00,,,0.00,0.0,meteohub,2013-03-11 05:35:00,
2013-03-11 01:40:00,51.6,48.6,30.12,ENE,68,0.0,0.0,89,0.00,,,0.00,0.0,meteohub,2013-03-11 05:40:00,
2013-03-11 01:45:00,51.4,48.4,30.11,ENE,68,0.0,0.0,89,0.00,,,0.00,0.0,meteohub,2013-03-11 05:45:00,
2013-03-11 01:50:00,51.4,48.4,30.11,ENE,68,0.0,0.0,89,0.00,,,0.00,0.0,meteohub,2013-03-11 05:50:00,
2013-03-11 01:55:00,51.4,48.4,30.11,ENE,68,0.0,0.0,89,0.00,,,0.00,0.0,meteohub,2013-03-11 05:55:00,
2013-03-11 02:00:00,51.4,48.4,30.11,ENE,68,0.0,0.0,89,0.00,,,0.00,0.0,meteohub,2013-03-11 06:00:00,
2013-03-11 02:05:00,51.3,48.2,30.11,ENE,68,0.0,0.0,89,0.00,,,0.00,0.0,meteohub,2013-03-11 06:05:00,
2013-03-11 02:10:00,51.4,48.4,30.11,ENE,68,0.0,0.0,89,0.00,,,0.00,0.0,meteohub,2013-03-11 06:10:00,
2013-03-11 02:15:00,51.3,48.2,30.12,ENE,68,0.0,0.0,89,0.00,,,0.00,0.0,meteohub,2013-03-11 06:15:00,
2013-03-11 02:20:00,51.3,48.2,30.12,ENE,68,0.0,0.0,89,0.00,,,0.00,0.0,meteohub,2013-03-11 06:20:00,
2013-03-11 02:25:00,51.3,48.4,30.12,ENE,68,0.0,0.0,90,0.00,,,0.00,0.0,meteohub,2013-03-11 06:25:00,
2013-03-11 02:30:00,51.3,48.4,30.11,ENE,68,0.0,0.0,90,0.00,,,0.00,0.0,meteohub,2013-03-11 06:30:00,
2013-03-11 02:35:00,51.3,48.4,30.11,ENE,68,0.0,0.0,90,0.00,,,0.00,0.0,meteohub,2013-03-11 06:35:00,
2013-03-11 02:40:00,51.3,48.4,30.11,ENE,68,0.0,0.0,90,0.00,,,0.00,0.0,meteohub,2013-03-11 06:40:00,
2013-03-11 02:45:00,51.4,48.6,30.11,ENE,68,0.0,0.0,90,0.00,,,0.00,0.0,meteohub,2013-03-11 06:45:00,
2013-03-11 02:50:00,51.4,48.6,30.10,ENE,68,0.0,0.0,90,0.00,,,0.00,0.0,meteohub,2013-03-11 06:50:00,
2013-03-11 02:56:00,51.4,48.6,30.10,ENE,68,0.0,0.0,90,0.00,,,0.00,0.0,meteohub,2013-03-11 06:56:00,
2013-03-11 03:01:00,51.3,48.4,30.10,ENE,68,0.0,0.0,90,0.00,,,0.00,0.0,meteohub,2013-03-11 07:01:00,
2013-03-11 03:06:00,51.3,48.4,30.10,ENE,68,0.0,0.0,90,0.00,,,0.00,0.0,meteohub,2013-03-11 07:06:00,
2013-03-11 03:10:00,51.3,48.4,30.10,ENE,68,0.0,0.0,90,0.00,,,0.00,0.0,meteohub,2013-03-11 07:10:00,
2013-03-11 03:15:00,51.3,48.4,30.09,ENE,68,0.0,0.0,90,0.00,,,0.00,0.0,meteohub,2013-03-11 07:15:00,
2013-03-11 03:21:00,51.3,48.4,30.10,ENE,68,0.0,0.0,90,0.00,,,0.00,0.0,meteohub,2013-03-11 07:21:00,
2013-03-11 03:26:00,51.1,48.2,30.09,ENE,68,0.0,0.0,90,0.00,,,0.00,0.0,meteohub,2013-03-11 07:26:00,
2013-03-11 03:31:00,51.1,48.2,30.09,ENE,68,0.0,0.0,90,0.00,,,0.00,0.0,meteohub,2013-03-11 07:31:00,
2013-03-11 03:36:00,51.1,48.2,30.09,ENE,68,0.0,0.0,90,0.00,,,0.00,0.0,meteohub,2013-03-11 07:36:00,
2013-03-11 03:41:00,51.1,48.6,30.09,ENE,68,0.0,0.0,91,0.00,,,0.00,0.0,meteohub,2013-03-11 07:41:00,
2013-03-11 03:46:00,51.1,48.2,30.08,ENE,68,0.0,0.0,90,0.00,,,0.00,0.0,meteohub,2013-03-11 07:46:00,
2013-03-11 03:51:00,50.9,48.0,30.08,ENE,68,0.0,0.0,90,0.00,,,0.00,0.0,meteohub,2013-03-11 07:51:00,
2013-03-11 03:56:00,50.9,48.4,30.08,ENE,68,0.0,0.0,91,0.00,,,0.00,0.0,meteohub,2013-03-11 07:56:00,
2013-03-11 04:01:00,50.9,48.4,30.08,ENE,68,0.0,0.0,91,0.00,,,0.00,0.0,meteohub,2013-03-11 08:01:00,
2013-03-11 04:06:00,50.9,48.4,30.07,ENE,68,0.0,0.0,91,0.00,,,0.00,0.0,meteohub,2013-03-11 08:06:00,
2013-03-11 04:12:00,51.1,48.6,30.07,ENE,68,0.0,0.0,91,0.00,,,0.00,0.0,meteohub,2013-03-11 08:12:00,
2013-03-11 04:17:00,51.1,48.6,30.06,ENE,68,0.0,0.0,91,0.00,,,0.00,0.0,meteohub,2013-03-11 08:17:00,
2013-03-11 04:22:00,51.1,48.6,30.07,ENE,68,0.0,0.0,91,0.00,,,0.00,0.0,meteohub,2013-03-11 08:22:00,
2013-03-11 04:27:00,51.1,48.6,30.07,ENE,68,0.0,0.0,91,0.00,,,0.00,0.0,meteohub,2013-03-11 08:27:00,
2013-03-11 04:32:00,51.1,48.6,30.06,ENE,68,0.0,0.0,91,0.00,,,0.00,0.0,meteohub,2013-03-11 08:32:00,
2013-03-11 04:37:00,51.1,48.6,30.06,ENE,68,0.0,0.0,91,0.00,,,0.00,0.0,meteohub,2013-03-11 08:37:00,
2013-03-11 04:42:00,50.9,48.4,30.06,ENE,68,0.0,0.0,91,0.00,,,0.00,0.0,meteohub,2013-03-11 08:42:00,
2013-03-11 04:47:00,51.1,48.6,30.06,ENE,68,0.0,0.0,91,0.00,,,0.00,0.0,meteohub,2013-03-11 08:47:00,
2013-03-11 04:52:00,50.9,48.4,30.06,ENE,68,0.0,0.0,91,0.00,,,0.00,0.0,meteohub,2013-03-11 08:52:00,
2013-03-11 04:57:00,50.9,48.4,30.05,ENE,68,0.0,0.0,91,0.00,,,0.00,0.0,meteohub,2013-03-11 08:57:00,
2013-03-11 05:02:00,51.1,48.6,30.05,ENE,68,0.0,0.0,91,0.00,,,0.00,0.0,meteohub,2013-03-11 09:02:00,
2013-03-11 05:07:00,51.1,48.6,30.05,ENE,68,0.0,0.0,91,0.00,,,0.00,0.0,meteohub,2013-03-11 09:07:00,
2013-03-11 05:12:00,51.1,48.6,30.05,ENE,68,0.0,0.0,91,0.00,,,0.00,0.0,meteohub,2013-03-11 09:12:00,
2013-03-11 05:17:00,51.1,48.6,30.05,ENE,68,0.0,0.0,91,0.00,,,0.00,0.0,meteohub,2013-03-11 09:17:00,
2013-03-11 05:22:00,50.9,48.7,30.05,ENE,68,0.0,0.0,92,0.00,,,0.00,0.0,meteohub,2013-03-11 09:22:00,
2013-03-11 05:27:00,50.9,48.7,30.05,ENE,68,0.0,0.0,92,0.00,,,0.00,0.0,meteohub,2013-03-11 09:27:00,
2013-03-11 05:32:00,50.7,48.6,30.05,ENE,68,0.0,0.0,92,0.00,,,0.00,0.0,meteohub,2013-03-11 09:32:00,
2013-03-11 05:37:00,50.7,48.6,30.05,ENE,68,0.0,0.0,92,0.00,,,0.00,0.0,meteohub,2013-03-11 09:37:00,
2013-03-11 05:42:00,50.7,48.6,30.05,ENE,68,0.0,0.0,92,0.00,,,0.00,0.0,meteohub,2013-03-11 09:42:00,
2013-03-11 05:47:00,50.7,48.6,30.05,ENE,68,0.0,0.0,92,0.00,,,0.00,0.0,meteohub,2013-03-11 09:47:00,
2013-03-11 05:52:00,50.5,48.4,30.05,ENE,68,0.0,0.0,92,0.00,,,0.00,0.0,meteohub,2013-03-11 09:52:00,
2013-03-11 05:57:00,50.4,48.2,30.05,ENE,68,0.0,0.0,92,0.00,,,0.00,0.0,meteohub,2013-03-11 09:57:00,
2013-03-11 06:02:00,50.4,48.2,30.05,ENE,68,0.0,0.0,92,0.00,,,0.00,0.0,meteohub,2013-03-11 10:02:00,
2013-03-11 06:07:00,50.4,48.2,30.05,ENE,68,0.0,0.0,92,0.00,,,0.00,0.0,meteohub,2013-03-11 10:07:00,
2013-03-11 06:12:00,50.4,48.2,30.05,ENE,68,0.0,0.0,92,0.00,,,0.00,0.0,meteohub,2013-03-11 10:12:00,
2013-03-11 06:18:00,50.4,48.2,30.05,ENE,68,0.0,0.0,92,0.00,,,0.00,0.0,meteohub,2013-03-11 10:18:00,
2013-03-11 06:23:00,50.2,48.0,30.05,ENE,68,0.0,0.0,92,0.00,,,0.00,0.0,meteohub,2013-03-11 10:23:00,
2013-03-11 06:28:00,50.4,48.2,30.05,ENE,68,0.0,0.0,92,0.00,,,0.00,0.0,meteohub,2013-03-11 10:28:00,
2013-03-11 06:33:00,50.4,48.2,30.05,ENE,68,0.0,0.0,92,0.00,,,0.00,0.0,meteohub,2013-03-11 10:33:00,
2013-03-11 06:38:00,50.4,48.2,30.05,ENE,68,0.0,0.0,92,0.00,,,0.00,0.0,meteohub,2013-03-11 10:38:00,
2013-03-11 06:43:00,50.4,48.2,30.05,ENE,68,0.0,0.0,92,0.00,,,0.00,0.0,meteohub,2013-03-11 10:43:00,
2013-03-11 06:48:00,50.5,48.4,30.04,ENE,68,0.0,1.0,92,0.00,,,0.00,0.0,meteohub,2013-03-11 10:48:00,
2013-03-11 06:53:00,50.7,48.6,30.05,ENE,68,0.0,1.0,92,0.00,,,0.00,0.0,meteohub,2013-03-11 10:53:00,
2013-03-11 06:58:00,50.9,48.7,30.05,ENE,68,0.0,1.0,92,0.00,,,0.00,0.0,meteohub,2013-03-11 10:58:00,
2013-03-11 07:03:00,51.1,48.9,30.04,ENE,68,0.0,0.0,92,0.00,,,0.00,0.0,meteohub,2013-03-11 11:03:00,
2013-03-11 07:08:00,51.1,48.9,30.04,ENE,68,0.0,0.0,92,0.00,,,0.00,0.0,meteohub,2013-03-11 11:08:00,
2013-03-11 07:13:00,51.3,49.1,30.04,ENE,68,0.0,0.0,92,0.00,,,0.00,0.0,meteohub,2013-03-11 11:13:00,
2013-03-11 07:18:00,51.3,49.1,30.04,ENE,68,0.0,0.0,92,0.00,,,0.00,0.0,meteohub,2013-03-11 11:18:00,
2013-03-11 07:23:00,51.4,49.3,30.04,ENE,68,0.0,0.0,92,0.00,,,0.00,0.0,meteohub,2013-03-11 11:23:00,
2013-03-11 07:28:00,51.4,49.3,30.04,ENE,68,0.0,0.0,92,0.00,,,0.00,0.0,meteohub,2013-03-11 11:28:00,
2013-03-11 07:33:00,51.8,49.6,30.04,ENE,68,0.0,1.0,92,0.00,,,0.00,0.0,meteohub,2013-03-11 11:33:00,
2013-03-11 07:38:00,52.0,49.6,30.04,ENE,68,0.0,1.0,92,0.00,,,0.00,0.0,meteohub,2013-03-11 11:38:00,
2013-03-11 07:43:00,52.0,49.6,30.04,ENE,68,0.0,1.0,92,0.00,,,0.00,5.0,meteohub,2013-03-11 11:43:00,
2013-03-11 07:48:00,52.0,49.6,30.05,ENE,68,0.0,0.0,92,0.00,,,0.00,9.0,meteohub,2013-03-11 11:48:00,
2013-03-11 07:53:00,52.2,49.8,30.04,ENE,68,0.0,0.0,92,0.00,,,0.00,16.0,meteohub,2013-03-11 11:53:00,
2013-03-11 07:58:00,52.2,49.8,30.04,ENE,68,0.0,0.0,92,0.00,,,0.00,21.0,meteohub,2013-03-11 11:58:00,
2013-03-11 08:03:00,52.0,50.0,30.05,ENE,68,0.0,0.0,93,0.00,,,0.00,25.0,meteohub,2013-03-11 12:03:00,
2013-03-11 08:08:00,52.2,50.2,30.04,ENE,68,0.0,0.0,93,0.00,,,0.00,23.0,meteohub,2013-03-11 12:08:00,
2013-03-11 08:13:00,52.2,50.2,30.05,ENE,68,0.0,0.0,93,0.00,,,0.00,23.0,meteohub,2013-03-11 12:13:00,
2013-03-11 08:18:00,52.3,50.4,30.05,ENE,68,0.0,0.0,93,0.00,,,0.00,23.0,meteohub,2013-03-11 12:18:00,
2013-03-11 08:23:00,52.3,50.4,30.05,ENE,68,0.0,0.0,93,0.00,,,0.00,32.0,meteohub,2013-03-11 12:23:00,
2013-03-11 08:28:00,52.3,50.0,30.04,ENE,68,0.0,-999.0,93,-99.99,,,0.00,35,weatherlink.com 1.10,2013-03-11 12:28:00,
2013-03-11 08:33:00,52.3,50.4,30.06,ENE,68,0.0,0.0,93,0.00,,,0.00,51.0,meteohub,2013-03-11 12:33:00,
2013-03-11 08:38:00,52.3,50.4,30.06,ENE,68,0.0,0.0,93,0.00,,,0.00,81.0,meteohub,2013-03-11 12:38:00,
2013-03-11 08:44:00,52.5,50.5,30.06,ENE,68,0.0,0.0,93,0.00,,,0.00,79.0,meteohub,2013-03-11 12:44:00,
2013-03-11 08:49:00,52.9,50.9,30.06,ENE,68,0.0,0.0,93,0.00,,,0.00,63.0,meteohub,2013-03-11 12:49:00,
2013-03-11 08:54:00,53.4,51.4,30.06,ENE,68,0.0,0.0,93,0.00,,,0.00,84.0,meteohub,2013-03-11 12:54:00,
2013-03-11 08:59:00,54.1,52.2,30.06,ENE,68,0.0,0.0,93,0.00,,,0.00,127.0,meteohub,2013-03-11 12:59:00,
2013-03-11 09:04:00,54.9,52.9,30.07,ENE,68,0.0,0.0,93,0.00,,,0.00,107.0,meteohub,2013-03-11 13:04:00,
2013-03-11 09:09:00,55.6,53.6,30.06,ENE,68,0.0,0.0,93,0.00,,,0.00,250.0,meteohub,2013-03-11 13:09:00,
2013-03-11 09:14:00,56.5,54.5,30.06,ENE,68,0.0,0.0,93,0.00,,,0.00,297.0,meteohub,2013-03-11 13:14:00,
2013-03-11 09:19:00,57.4,55.4,30.06,ENE,68,0.0,0.0,93,0.00,,,0.00,246.0,meteohub,2013-03-11 13:19:00,
2013-03-11 09:24:00,57.9,55.9,30.06,ENE,68,0.0,0.0,93,0.00,,,0.00,130.0,meteohub,2013-03-11 13:24:00,
2013-03-11 09:29:00,58.6,56.7,30.06,ENE,68,0.0,1.0,93,0.00,,,0.00,200.0,meteohub,2013-03-11 13:29:00,
2013-03-11 09:34:00,59.0,57.0,30.06,ENE,68,0.0,1.0,93,0.00,,,0.00,265.0,meteohub,2013-03-11 13:34:00,
2013-03-11 09:39:00,59.5,57.6,30.06,East,95,3.0,3.0,93,0.00,,,0.00,302.0,meteohub,2013-03-11 13:39:00,
2013-03-11 09:44:00,60.1,58.1,30.06,ESE,118,1.0,3.0,93,0.00,,,0.00,311.0,meteohub,2013-03-11 13:44:00,
2013-03-11 09:49:00,61.0,59.0,30.06,ESE,109,3.0,4.0,93,0.00,,,0.00,346.0,meteohub,2013-03-11 13:49:00,
2013-03-11 09:54:00,62.1,59.7,30.06,ESE,122,3.0,6.0,92,0.00,,,0.00,244.0,meteohub,2013-03-11 13:54:00,
2013-03-11 09:59:00,62.6,59.9,30.06,SE,124,0.0,8.0,91,0.00,,,0.00,221.0,meteohub,2013-03-11 13:59:00,
2013-03-11 10:04:00,63.3,60.6,30.06,SE,124,0.0,8.0,91,0.00,,,0.00,469.0,meteohub,2013-03-11 14:04:00,
2013-03-11 10:09:00,64.0,61.0,30.06,ENE,76,2.0,8.0,90,0.00,,,0.00,420.0,meteohub,2013-03-11 14:09:00,
2013-03-11 10:14:00,64.9,61.7,30.06,South,169,4.0,5.0,89,0.00,,,0.00,436.0,meteohub,2013-03-11 14:14:00,
2013-03-11 10:19:00,65.7,62.1,30.06,SSE,149,7.0,7.0,88,0.00,,,0.00,441.0,meteohub,2013-03-11 14:19:00,
2013-03-11 10:24:00,66.0,61.7,30.07,SSW,206,6.0,7.0,86,0.00,,,0.00,406.0,meteohub,2013-03-11 14:24:00,
2013-03-11 10:29:00,66.4,62.1,30.07,SSE,153,0.0,10.0,86,0.00,,,0.00,332.0,meteohub,2013-03-11 14:29:00,
2013-03-11 10:34:00,66.7,62.1,30.07,SSW,212,1.0,10.0,85,0.00,,,0.00,443.0,meteohub,2013-03-11 14:34:00,
2013-03-11 10:39:00,67.3,62.2,30.07,SE,125,0.0,11.0,84,0.00,,,0.00,308.0,meteohub,2013-03-11 14:39:00,
2013-03-11 10:44:00,67.6,62.6,30.07,South,169,2.0,11.0,84,0.00,,,0.00,425.0,meteohub,2013-03-11 14:44:00,
2013-03-11 10:49:00,67.8,62.8,30.07,SSE,159,1.0,11.0,84,0.00,,,0.00,417.0,meteohub,2013-03-11 14:49:00,
2013-03-11 10:54:00,67.8,62.4,30.07,SSE,159,3.0,8.0,83,0.00,,,0.00,564.0,meteohub,2013-03-11 14:54:00,
2013-03-11 10:59:00,68.0,62.2,30.07,ESE,113,3.0,10.0,82,0.00,,,0.00,446.0,meteohub,2013-03-11 14:59:00,
2013-03-11 11:04:00,68.4,62.6,30.07,SSW,195,10.0,10.0,82,0.00,,,0.00,563.0,meteohub,2013-03-11 15:04:00,
2013-03-11 11:09:00,68.4,62.2,30.07,ESE,114,3.0,10.0,81,0.00,,,0.00,320.0,meteohub,2013-03-11 15:09:00,
2013-03-11 11:14:00,68.5,62.4,30.07,South,179,3.0,11.0,81,0.00,,,0.00,352.0,meteohub,2013-03-11 15:14:00,
2013-03-11 11:19:00,68.7,62.2,30.07,SE,134,3.0,11.0,80,0.00,,,0.00,343.0,meteohub,2013-03-11 15:19:00,
2013-03-11 11:24:00,68.9,62.4,30.07,SSE,153,2.0,11.0,80,0.00,,,0.00,401.0,meteohub,2013-03-11 15:24:00,
2013-03-11 11:29:00,69.3,62.8,30.06,ESE,105,4.0,11.0,80,0.00,,,0.00,591.0,meteohub,2013-03-11 15:29:00,
2013-03-11 11:35:00,69.6,63.1,30.06,South,184,0.0,8.0,80,0.00,,,0.00,714.0,meteohub,2013-03-11 15:35:00,
2013-03-11 11:40:00,70.2,63.3,30.06,SSW,206,6.0,16.0,79,0.00,,,0.00,596.0,meteohub,2013-03-11 15:40:00,
2013-03-11 11:45:00,70.5,63.7,30.06,SW,235,4.0,16.0,79,0.00,,,0.00,642.0,meteohub,2013-03-11 15:45:00,
2013-03-11 11:50:00,70.5,63.3,30.06,ESE,111,2.0,16.0,78,0.00,,,0.00,454.0,meteohub,2013-03-11 15:50:00,
2013-03-11 11:55:00,70.2,62.6,30.07,East,88,1.0,8.0,77,0.00,,,0.00,432.0,meteohub,2013-03-11 15:55:00,
2013-03-11 12:00:00,69.8,62.6,30.07,SSE,150,11.0,11.0,78,0.00,,,0.00,399.0,meteohub,2013-03-11 16:00:00,
2013-03-11 12:05:00,69.4,62.2,30.07,SSW,207,2.0,13.0,78,0.00,,,0.00,480.0,meteohub,2013-03-11 16:05:00,
2013-03-11 12:10:00,69.8,62.6,30.07,South,188,2.0,15.0,78,0.00,,,0.00,513.0,meteohub,2013-03-11 16:10:00,
2013-03-11 12:15:00,70.2,62.6,30.06,SE,126,0.0,15.0,77,0.00,,,0.00,596.0,meteohub,2013-03-11 16:15:00,
2013-03-11 12:20:00,70.3,62.4,30.06,SW,221,7.0,15.0,76,0.00,,,0.00,503.0,meteohub,2013-03-11 16:20:00,
2013-03-11 12:25:00,70.5,62.6,30.05,SE,133,2.0,11.0,76,0.00,,,0.00,538.0,meteohub,2013-03-11 16:25:00,
2013-03-11 12:30:00,70.7,62.8,30.06,SSW,213,7.0,11.0,76,0.00,,,0.00,555.0,meteohub,2013-03-11 16:30:00,
2013-03-11 12:35:00,70.5,62.6,30.05,SE,129,3.0,11.0,76,0.00,,,0.00,446.0,meteohub,2013-03-11 16:35:00,
2013-03-11 12:40:00,70.5,62.6,30.05,South,189,2.0,12.0,76,0.00,,,0.00,578.0,meteohub,2013-03-11 16:40:00,
2013-03-11 12:45:00,70.9,63.0,30.05,SSW,194,4.0,12.0,76,0.00,,,0.00,608.0,meteohub,2013-03-11 16:45:00,
2013-03-11 12:50:00,71.1,62.8,30.05,SSE,165,1.0,10.0,75,0.00,,,0.00,519.0,meteohub,2013-03-11 16:50:00,
2013-03-11 12:55:00,71.1,62.4,30.04,ESE,121,1.0,7.0,74,0.00,,,0.00,415.0,meteohub,2013-03-11 16:55:00,
2013-03-11 13:00:00,70.9,62.6,30.04,SSE,166,8.0,10.0,75,0.00,,,0.00,552.0,meteohub,2013-03-11 17:00:00,
2013-03-11 13:05:00,70.7,62.4,30.04,SSW,206,7.0,13.0,75,0.00,,,0.00,661.0,meteohub,2013-03-11 17:05:00,
2013-03-11 13:10:00,70.9,62.6,30.04,South,184,3.0,13.0,75,0.00,,,0.00,434.0,meteohub,2013-03-11 17:10:00,
2013-03-11 13:15:00,71.1,62.8,30.04,SSW,200,10.0,12.0,75,0.00,,,0.00,480.0,meteohub,2013-03-11 17:15:00,
2013-03-11 13:20:00,70.9,62.6,30.03,SSE,161,5.0,11.0,75,0.00,,,0.00,527.0,meteohub,2013-03-11 17:20:00,
2013-03-11 13:25:00,71.1,62.4,30.03,ESE,123,10.0,11.0,74,0.00,,,0.00,550.0,meteohub,2013-03-11 17:25:00,
2013-03-11 13:30:00,71.2,62.1,30.03,SE,145,4.0,11.0,73,0.00,,,0.00,585.0,meteohub,2013-03-11 17:30:00,
2013-03-11 13:35:00,71.2,62.1,30.03,SSE,149,5.0,11.0,73,0.00,,,0.00,598.0,meteohub,2013-03-11 17:35:00,
2013-03-11 13:40:00,71.6,62.4,30.02,SSW,193,6.0,11.0,73,0.00,,,0.00,533.0,meteohub,2013-03-11 17:40:00,
2013-03-11 13:45:00,71.2,61.7,30.02,South,189,2.0,12.0,72,0.00,,,0.00,461.0,meteohub,2013-03-11 17:45:00,
2013-03-11 13:50:00,71.2,61.7,30.02,SSW,205,4.0,12.0,72,0.00,,,0.00,482.0,meteohub,2013-03-11 17:50:00,
2013-03-11 13:55:00,71.4,61.9,30.01,SSE,148,3.0,12.0,72,0.00,,,0.00,424.0,meteohub,2013-03-11 17:55:00,
2013-03-11 14:00:00,71.4,61.9,30.01,SSE,157,7.0,10.0,72,0.00,,,0.00,339.0,meteohub,2013-03-11 18:00:00,
2013-03-11 14:05:00,71.2,61.3,30.01,ESE,111,5.0,10.0,71,0.00,,,0.00,492.0,meteohub,2013-03-11 18:05:00,
2013-03-11 14:10:00,71.1,61.2,30.01,SE,138,2.0,14.0,71,0.00,,,0.00,424.0,meteohub,2013-03-11 18:10:00,
2013-03-11 14:15:00,70.9,61.0,30.01,SE,130,6.0,14.0,71,0.00,,,0.00,343.0,meteohub,2013-03-11 18:15:00,
2013-03-11 14:20:00,70.9,61.0,29.99,SE,146,5.0,15.0,71,0.00,,,0.00,436.0,meteohub,2013-03-11 18:20:00,
2013-03-11 14:25:00,71.1,61.2,29.99,East,86,2.0,15.0,71,0.00,,,0.00,448.0,meteohub,2013-03-11 18:25:00,
2013-03-11 14:30:00,71.1,60.8,29.99,ESE,110,2.0,13.0,70,0.00,,,0.00,563.0,meteohub,2013-03-11 18:30:00,
2013-03-11 14:35:00,71.2,61.0,29.99,SSE,152,9.0,13.0,70,0.00,,,0.00,809.0,meteohub,2013-03-11 18:35:00,
2013-03-11 14:40:00,71.6,61.3,29.99,South,172,12.0,13.0,70,0.00,,,0.00,680.0,meteohub,2013-03-11 18:40:00,
2013-03-11 14:45:00,71.2,60.6,29.98,SE,125,6.0,15.0,69,0.00,,,0.00,443.0,meteohub,2013-03-11 18:45:00,
2013-03-11 14:50:00,71.2,60.6,29.97,South,175,2.0,15.0,69,0.00,,,0.00,575.0,meteohub,2013-03-11 18:50:00,
2013-03-11 14:55:00,71.2,61.0,29.97,SSW,195,3.0,15.0,70,0.00,,,0.00,522.0,meteohub,2013-03-11 18:55:00,
2013-03-11 15:00:00,71.4,60.8,29.97,SW,214,5.0,14.0,69,0.00,,,0.00,355.0,meteohub,2013-03-11 19:00:00,
2013-03-11 15:05:00,71.2,60.6,29.98,SSE,154,3.0,13.0,69,0.00,,,0.00,302.0,meteohub,2013-03-11 19:05:00,
2013-03-11 15:11:00,71.1,60.4,29.97,SSE,166,5.0,13.0,69,0.00,,,0.00,548.0,meteohub,2013-03-11 19:11:00,
2013-03-11 15:16:00,71.1,60.4,29.97,SSE,163,6.0,16.0,69,0.00,,,0.00,765.0,meteohub,2013-03-11 19:16:00,
2013-03-11 15:21:00,71.2,60.6,29.96,SSE,168,6.0,16.0,69,0.00,,,0.00,512.0,meteohub,2013-03-11 19:21:00,
2013-03-11 15:26:00,71.2,60.6,29.96,SSW,194,7.0,16.0,69,0.00,,,0.00,329.0,meteohub,2013-03-11 19:26:00,
2013-03-11 15:31:00,71.1,60.4,29.96,ESE,121,5.0,15.0,69,0.00,,,0.00,287.0,meteohub,2013-03-11 19:31:00,
2013-03-11 15:36:00,70.5,59.9,29.96,SSW,199,8.0,17.0,69,0.00,,,0.00,283.0,meteohub,2013-03-11 19:36:00,
2013-03-11 15:41:00,70.2,59.9,29.96,South,169,3.0,17.0,70,0.00,,,0.00,253.0,meteohub,2013-03-11 19:41:00,
2013-03-11 15:46:00,69.8,59.5,29.96,SE,132,1.0,17.0,70,0.00,,,0.00,274.0,meteohub,2013-03-11 19:46:00,
2013-03-11 15:51:00,69.8,59.5,29.96,SE,139,3.0,11.0,70,0.00,,,0.00,302.0,meteohub,2013-03-11 19:51:00,
2013-03-11 15:56:00,70.0,59.7,29.95,SE,141,1.0,11.0,70,0.00,,,0.00,318.0,meteohub,2013-03-11 19:56:00,
2013-03-11 16:01:00,70.2,59.9,29.95,ESE,119,5.0,11.0,70,0.00,,,0.00,306.0,meteohub,2013-03-11 20:01:00,
2013-03-11 16:06:00,70.2,59.9,29.95,SSW,194,3.0,14.0,70,0.00,,,0.00,253.0,meteohub,2013-03-11 20:06:00,
2013-03-11 16:11:00,70.0,59.7,29.95,SE,128,7.0,14.0,70,0.00,,,0.00,232.0,meteohub,2013-03-11 20:11:00,
2013-03-11 16:17:00,69.8,59.5,29.95,SW,215,3.0,14.0,70,0.00,,,0.00,176.0,meteohub,2013-03-11 20:17:00,
2013-03-11 16:22:00,69.6,59.7,29.95,West,261,5.0,11.0,71,0.00,,,0.00,367.0,meteohub,2013-03-11 20:22:00,
2013-03-11 16:27:00,69.8,59.9,29.94,SSW,199,8.0,11.0,71,0.00,,,0.00,311.0,meteohub,2013-03-11 20:27:00,
2013-03-11 16:32:00,70.0,60.1,29.94,SSW,211,4.0,10.0,71,0.00,,,0.00,190.0,meteohub,2013-03-11 20:32:00,
2013-03-11 16:37:00,69.6,59.7,29.94,ESE,123,7.0,10.0,71,0.00,,,0.00,218.0,meteohub,2013-03-11 20:37:00,
2013-03-11 16:42:00,69.4,59.5,29.94,South,186,1.0,10.0,71,0.00,,,0.00,213.0,meteohub,2013-03-11 20:42:00,
2013-03-11 16:47:00,69.3,59.5,29.94,SSE,157,7.0,11.0,71,0.00,,,0.00,264.0,meteohub,2013-03-11 20:47:00,
2013-03-11 16:52:00,69.3,59.9,29.94,SSW,208,1.0,11.0,72,0.00,,,0.00,251.0,meteohub,2013-03-11 20:52:00,
2013-03-11 16:57:00,69.3,59.9,29.94,ESE,111,3.0,11.0,72,0.00,,,0.00,213.0,meteohub,2013-03-11 20:57:00,
2013-03-11 17:02:00,69.3,59.9,29.94,SE,126,5.0,11.0,72,0.00,,,0.00,353.0,meteohub,2013-03-11 21:02:00,
2013-03-11 17:07:00,69.4,60.1,29.94,SSE,159,6.0,9.0,72,0.00,,,0.00,186.0,meteohub,2013-03-11 21:07:00,
2013-03-11 17:12:00,69.4,60.1,29.94,SSE,156,6.0,10.0,72,0.00,,,0.00,383.0,meteohub,2013-03-11 21:12:00,
2013-03-11 17:17:00,69.4,60.1,29.94,SSW,198,3.0,10.0,72,0.00,,,0.00,229.0,meteohub,2013-03-11 21:17:00,
2013-03-11 17:22:00,69.3,59.9,29.94,South,188,1.0,10.0,72,0.00,,,0.00,225.0,meteohub,2013-03-11 21:22:00,
2013-03-11 17:27:00,69.3,59.9,29.94,South,185,4.0,10.0,72,0.00,,,0.00,272.0,meteohub,2013-03-11 21:27:00,
2013-03-11 17:32:00,69.4,60.1,29.94,South,171,3.0,9.0,72,0.00,,,0.00,190.0,meteohub,2013-03-11 21:32:00,
2013-03-11 17:37:00,69.3,59.9,29.94,SSE,161,5.0,9.0,72,0.00,,,0.00,142.0,meteohub,2013-03-11 21:37:00,
2013-03-11 17:42:00,68.9,59.5,29.94,ESE,122,10.0,10.0,72,0.00,,,0.00,132.0,meteohub,2013-03-11 21:42:00,
2013-03-11 17:47:00,68.5,59.5,29.93,SE,132,10.0,13.0,73,0.00,,,0.00,141.0,meteohub,2013-03-11 21:47:00,
2013-03-11 17:52:00,68.4,59.4,29.93,South,180,1.0,13.0,73,0.00,,,0.00,139.0,meteohub,2013-03-11 21:52:00,
2013-03-11 17:57:00,68.4,59.4,29.93,SE,134,6.0,13.0,73,0.00,,,0.00,120.0,meteohub,2013-03-11 21:57:00,
2013-03-11 18:02:00,68.2,59.2,29.92,SE,144,0.0,11.0,73,0.00,,,0.00,107.0,meteohub,2013-03-11 22:02:00,
2013-03-11 18:07:00,67.8,59.2,29.92,South,181,3.0,6.0,74,0.00,,,0.00,97.0,meteohub,2013-03-11 22:07:00,
2013-03-11 18:12:00,67.6,59.0,29.92,SSE,153,2.0,11.0,74,0.00,,,0.00,88.0,meteohub,2013-03-11 22:12:00,
2013-03-11 18:17:00,67.5,58.8,29.91,ESE,111,0.0,12.0,74,0.00,,,0.00,76.0,meteohub,2013-03-11 22:17:00,
2013-03-11 18:22:00,67.5,58.8,29.91,ESE,106,8.0,12.0,74,0.00,,,0.00,76.0,meteohub,2013-03-11 22:22:00,
2013-03-11 18:27:00,67.3,59.0,29.92,SW,233,4.0,12.0,75,0.00,,,0.00,67.0,meteohub,2013-03-11 22:27:00,
2013-03-11 18:32:00,67.3,59.0,29.91,ESE,105,0.0,10.0,75,0.00,,,0.00,63.0,meteohub,2013-03-11 22:32:00,
2013-03-11 18:37:00,67.1,58.8,29.92,SSE,153,3.0,10.0,75,0.00,,,0.00,51.0,meteohub,2013-03-11 22:37:00,
2013-03-11 18:42:00,66.9,58.8,29.92,SE,140,3.0,9.0,75,0.00,,,0.00,37.0,meteohub,2013-03-11 22:42:00,
2013-03-11 18:47:00,66.9,59.2,29.91,East,101,1.0,9.0,76,0.00,,,0.00,30.0,meteohub,2013-03-11 22:47:00,
2013-03-11 18:52:00,66.7,59.0,29.91,South,186,4.0,8.0,76,0.00,,,0.00,23.0,meteohub,2013-03-11 22:52:00,
2013-03-11 18:57:00,66.6,59.2,29.91,SSE,165,5.0,12.0,77,0.00,,,0.00,16.0,meteohub,2013-03-11 22:57:00,
2013-03-11 19:03:00,66.4,59.0,29.90,SSE,168,3.0,12.0,77,0.00,,,0.00,14.0,meteohub,2013-03-11 23:03:00,
2013-03-11 19:08:00,66.0,58.6,29.90,SSE,155,3.0,11.0,77,0.00,,,0.00,14.0,meteohub,2013-03-11 23:08:00,
2013-03-11 19:13:00,66.0,59.0,29.91,SE,137,4.0,12.0,78,0.00,,,0.00,12.0,meteohub,2013-03-11 23:13:00,
2013-03-11 19:18:00,65.8,58.8,29.91,SSE,164,2.0,12.0,78,0.00,,,0.00,7.0,meteohub,2013-03-11 23:18:00,
2013-03-11 19:23:00,65.8,58.8,29.90,SE,142,3.0,11.0,78,0.00,,,0.00,5.0,meteohub,2013-03-11 23:23:00,
2013-03-11 19:28:00,65.7,59.0,29.90,ESE,114,8.0,11.0,79,0.00,,,0.00,0.0,meteohub,2013-03-11 23:28:00,
2013-03-11 19:33:00,65.5,58.8,29.90,SSE,157,2.0,9.0,79,0.00,,,0.00,0.0,meteohub,2013-03-11 23:33:00,
2013-03-11 19:38:00,65.3,59.0,29.90,South,185,0.0,14.0,80,0.00,,,0.00,0.0,meteohub,2013-03-11 23:38:00,
2013-03-11 19:43:00,65.2,59.0,29.89,SSE,163,1.0,-999.0,80,-99.99,,,0.00,0,weatherlink.com 1.10,2013-03-11 23:43:00,
2013-03-11 19:48:00,64.9,58.6,29.90,ESE,115,4.0,12.0,80,0.00,,,0.00,0.0,meteohub,2013-03-11 23:48:00,
2013-03-11 19:53:00,64.9,59.0,29.90,SSE,149,2.0,12.0,81,0.00,,,0.00,0.0,meteohub,2013-03-11 23:53:00,
2013-03-11 19:58:00,64.9,59.0,29.90,SE,142,3.0,12.0,81,0.00,,,0.00,0.0,meteohub,2013-03-11 23:58:00,
2013-03-11 20:03:00,64.8,58.8,29.91,South,181,3.0,10.0,81,0.00,,,0.00,0.0,meteohub,2013-03-12 00:03:00,
2013-03-11 20:08:00,64.8,58.8,29.90,East,81,0.0,10.0,81,0.00,,,0.00,0.0,meteohub,2013-03-12 00:08:00,
2013-03-11 20:13:00,64.6,58.6,29.90,East,81,2.0,10.0,81,0.00,,,0.00,0.0,meteohub,2013-03-12 00:13:00,
2013-03-11 20:18:00,64.6,59.0,29.90,East,94,0.0,10.0,82,0.00,,,0.00,0.0,meteohub,2013-03-12 00:18:00,
2013-03-11 20:23:00,64.4,58.8,29.90,ESE,105,1.0,10.0,82,0.00,,,0.00,0.0,meteohub,2013-03-12 00:23:00,
2013-03-11 20:28:00,64.4,58.8,29.90,SSE,168,3.0,10.0,82,0.00,,,0.00,0.0,meteohub,2013-03-12 00:28:00,
2013-03-11 20:33:00,64.4,58.8,29.90,NE,52,1.0,11.0,82,0.00,,,0.00,0.0,meteohub,2013-03-12 00:33:00,
2013-03-11 20:38:00,64.4,58.8,29.90,SSE,168,2.0,11.0,82,0.00,,,0.00,0.0,meteohub,2013-03-12 00:38:00,
2013-03-11 20:43:00,64.6,59.0,29.91,SSE,157,1.0,12.0,82,0.00,,,0.00,0.0,meteohub,2013-03-12 00:43:00,
2013-03-11 20:48:00,64.6,59.4,29.90,ESE,113,7.0,12.0,83,0.00,,,0.00,0.0,meteohub,2013-03-12 00:48:00,
2013-03-11 20:53:00,64.6,59.4,29.90,SSE,161,1.0,12.0,83,0.00,,,0.00,0.0,meteohub,2013-03-12 00:53:00,
2013-03-11 20:58:00,64.6,59.4,29.90,SSE,152,5.0,11.0,83,0.00,,,0.00,0.0,meteohub,2013-03-12 00:58:00,
2013-03-11 21:03:00,64.6,59.4,29.91,SSE,157,2.0,9.0,83,0.00,,,0.00,0.0,meteohub,2013-03-12 01:03:00,
2013-03-11 21:08:00,64.6,59.4,29.91,SE,128,0.0,10.0,83,0.00,,,0.00,0.0,meteohub,2013-03-12 01:08:00,
2013-03-11 21:13:00,64.6,59.4,29.91,SE,134,2.0,10.0,83,0.00,,,0.00,0.0,meteohub,2013-03-12 01:13:00,
2013-03-11 21:18:00,64.6,59.4,29.91,ESE,117,4.0,10.0,83,0.00,,,0.00,0.0,meteohub,2013-03-12 01:18:00,
2013-03-11 21:24:00,64.4,59.2,29.90,SSE,156,2.0,9.0,83,0.00,,,0.00,0.0,meteohub,2013-03-12 01:24:00,
2013-03-11 21:29:00,64.4,59.2,29.90,SSW,203,5.0,10.0,83,0.00,,,0.00,0.0,meteohub,2013-03-12 01:29:00,
2013-03-11 21:34:00,64.4,59.2,29.89,East,90,1.0,10.0,83,0.00,,,0.00,0.0,meteohub,2013-03-12 01:34:00,
2013-03-11 21:39:00,64.4,59.2,29.89,SSE,155,0.0,9.0,83,0.00,,,0.00,0.0,meteohub,2013-03-12 01:39:00,
2013-03-11 21:44:00,64.4,59.5,29.89,SSE,150,2.0,11.0,84,0.00,,,0.00,0.0,meteohub,2013-03-12 01:44:00,
2013-03-11 21:49:00,64.4,59.5,29.90,South,172,3.0,11.0,84,0.00,,,0.00,0.0,meteohub,2013-03-12 01:49:00,
2013-03-11 21:54:00,64.6,59.7,29.89,SSE,156,6.0,12.0,84,0.00,,,0.00,0.0,meteohub,2013-03-12 01:54:00,
2013-03-11 21:59:00,64.6,59.7,29.90,SSE,148,3.0,12.0,84,0.00,,,0.00,0.0,meteohub,2013-03-12 01:59:00,
2013-03-11 22:04:00,64.6,59.7,29.90,South,182,2.0,18.0,84,0.00,,,0.00,0.0,meteohub,2013-03-12 02:04:00,
2013-03-11 22:09:00,64.6,59.7,29.90,SE,145,1.0,18.0,84,0.00,,,0.00,0.0,meteohub,2013-03-12 02:09:00,
2013-03-11 22:14:00,64.6,59.7,29.90,South,185,4.0,18.0,84,0.00,,,0.00,0.0,meteohub,2013-03-12 02:14:00,
2013-03-11 22:19:00,64.8,59.9,29.90,SSE,153,2.0,14.0,84,0.00,,,0.00,0.0,meteohub,2013-03-12 02:19:00,
2013-03-11 22:24:00,64.8,59.5,29.89,SSE,161,5.0,14.0,83,0.00,,,0.00,0.0,meteohub,2013-03-12 02:24:00,
2013-03-11 22:29:00,64.9,59.7,29.90,SE,129,0.0,15.0,83,0.00,,,0.00,0.0,meteohub,2013-03-12 02:29:00,
2013-03-11 22:34:00,64.9,59.7,29.90,SSE,148,6.0,15.0,83,0.00,,,0.00,0.0,meteohub,2013-03-12 02:34:00,
2013-03-11 22:39:00,64.9,59.7,29.90,South,190,5.0,15.0,83,0.00,,,0.00,0.0,meteohub,2013-03-12 02:39:00,
2013-03-11 22:44:00,64.9,59.7,29.91,SE,138,6.0,17.0,83,0.00,,,0.00,0.0,meteohub,2013-03-12 02:44:00,
2013-03-11 22:49:00,65.1,59.9,29.91,SSE,149,2.0,17.0,83,0.00,,,0.00,0.0,meteohub,2013-03-12 02:49:00,
2013-03-11 22:54:00,65.1,59.9,29.91,SE,125,0.0,12.0,83,0.00,,,0.00,0.0,meteohub,2013-03-12 02:54:00,
2013-03-11 22:59:00,65.1,59.9,29.90,ESE,119,8.0,13.0,83,0.00,,,0.00,0.0,meteohub,2013-03-12 02:59:00,
2013-03-11 23:04:00,65.3,60.1,29.90,WSW,240,4.0,13.0,83,0.00,,,0.00,0.0,meteohub,2013-03-12 03:04:00,
2013-03-11 23:09:00,65.5,60.3,29.90,South,178,4.0,15.0,83,0.00,,,0.00,0.0,meteohub,2013-03-12 03:09:00,
2013-03-11 23:14:00,65.5,60.3,29.90,SW,219,6.0,15.0,83,0.00,,,0.00,0.0,meteohub,2013-03-12 03:14:00,
2013-03-11 23:19:00,65.7,60.4,29.90,SSW,194,5.0,15.0,83,0.00,,,0.00,0.0,meteohub,2013-03-12 03:19:00,
2013-03-11 23:24:00,65.7,60.4,29.89,SSE,160,4.0,14.0,83,0.00,,,0.00,0.0,meteohub,2013-03-12 03:24:00,
2013-03-11 23:29:00,65.7,60.4,29.89,SSE,155,7.0,14.0,83,0.00,,,0.00,0.0,meteohub,2013-03-12 03:29:00,
2013-03-11 23:34:00,65.7,60.4,29.88,South,182,8.0,14.0,83,0.00,,,0.00,0.0,meteohub,2013-03-12 03:34:00,
2013-03-11 23:39:00,65.5,60.3,29.88,SSE,161,10.0,13.0,83,0.00,,,0.00,0.0,meteohub,2013-03-12 03:39:00,
2013-03-11 23:44:00,65.5,60.3,29.88,South,170,6.0,16.0,83,0.00,,,0.00,0.0,meteohub,2013-03-12 03:44:00,
2013-03-11 23:50:00,65.3,60.1,29.87,SSW,203,5.0,16.0,83,0.00,,,0.00,0.0,meteohub,2013-03-12 03:50:00,
2013-03-11 23:55:00,65.1,60.1,29.87,WSW,237,7.0,12.0,84,0.00,,,0.00,0.0,meteohub,2013-03-12 03:55:00,